Regional Weather Roundup
Issued by NWS Green Bay, WI

Home | Current Version | Previous Version | Text Only | Print | Product List | Glossary On
Versions: 1 2 3 4 5 6 7 8 9 10 11 12 13 14 15 16 17 18 19 20 21 22 23 24 25 26 27 28 29 30 31 32 33 34 35 36 37 38 39 40 41 42 43 44 45 46 47 48 49 50
000
ASUS43 KGRB 300959
RWRGRB

NORTH-CENTRAL AND NORTHEAST WISCONSIN REGIONAL WEATHER ROUNDUP
NATIONAL WEATHER SERVICE GREEN BAY WI
400 AM CST FRI JAN 30 2015

WIZ005-009-010>012-018-019-301100-
NORTH CENTRAL WISCONSIN

CITY           SKY/WX    TMP DP  RH WIND       PRES   REMARKS
IRONWOOD       CLOUDY    12   3  67 N7        30.41F WCI   2
MANITOWISH WTR NOT AVBL
ARBOR VITAE    NOT AVBL
EAGLE RIVER    NOT AVBL
LAND O LAKES   NOT AVBL
RHINELANDER    CLOUDY    11   2  67 VRB7      30.39S WCI   0
PHILLIPS       NOT AVBL
ANTIGO         NOT AVBL
TOMAHAWK       NOT AVBL
MERRILL        NOT AVBL
$$

WIZ013-073-301100-
NORTHEAST WISCONSIN

CITY           SKY/WX    TMP DP  RH WIND       PRES   REMARKS
IRON MOUNTAIN  CLOUDY    11   3  70 NW13      30.40R WCI  -4
MARINETTE      CLOUDY    14   1  57 N3        30.44R
$$

WIZ017-030-035>037-045-301100-
CENTRAL WISCONSIN

CITY           SKY/WX    TMP DP  RH WIND       PRES   REMARKS
MEDFORD        NOT AVBL
WAUSAU         CLOUDY    14   4  64 NW9       30.42R WCI   2
MOSINEE        NOT AVBL
MARSHFIELD     CLOUDY    13   4  67 NW12      30.45R WCI  -1
WISC RAPIDS    CLOUDY    16   5  62 N8        30.47R WCI   5
STEVENS POINT  NOT AVBL
WAUPACA        NOT AVBL
SHAWANO        NOT AVBL
CLINTONVILLE   NOT AVBL
$$

WIZ038-039-048-051-301100-
FOX VALLEY

CITY           SKY/WX    TMP DP  RH WIND       PRES   REMARKS
NWS GREEN BAY  CLOUDY    18   7  62 N10       30.44R WCI   6
APPLETON       NOT AVBL
OSHKOSH        CLEAR     17   4  56 NW9       30.43R WCI   6
FOND DU LAC    CLEAR     13   3  64 NW9       30.43R WCI   1
$$

WIZ022-050-052-301100-
EAST CENTRAL WISCONSIN

CITY           SKY/WX    TMP DP  RH WIND       PRES   REMARKS
STURGEON BAY   CLOUDY    14   3  62 N9        30.44R WCI   2
MANITOWOC      NOT AVBL
SHEBOYGAN      CLOUDY    18   8  65 N9        30.42R WCI   7
$$

LMZ563-521-522-541>543-301100-
LAKESHORE

STATION/POSITION TIME  TEMP    WIND        PRES    VSBY  WAVE
                       AIR SEA DIR/SP/G                  HT/PER
                 (UTC) (F)     (DEG/KT/KT) (MB)    (MI)  (FT/S)
SHEBOYGAN LKSHOR 0900   20     340/ 16/ 18 1031.1R
KEWAUNEE LKSHORE 0900   16     350/ 12/ 17 1029.3R
NORTHPORT PIER   0900   17     330/ 24/ 27 1029.5R
SISTER BAY LKSHO 0900   16     340/ 21/ 24   N/A
CHAMBERS ISLAND  0900   15     330/ 20/ 24 1029.8R
MENOMINEE LKSHOR 0900   15     320/ 12     1031.1R
$$


USA.gov is the U.S. government's official web portal to all federal, state and local government web resources and services.